Simultaneous Nadir Overpasses (SNOs) Predictions

Prediction of SNOs between METOP-B and NOAA-19 Satellite Orbit:

Table of predicted SNOs for the next 14.0 days since TLE Epoch: 4/6/2018
Index Date (METOP-B) Time (METOP-B) Lat,Lon (METOP-B) SZA (METOP-B ) Date (NOAA-19) Time (NOAA-19) Lat,Lon (NOAA-19) SZA (NOAA-19 ) Distance(km) Time Diff (sec)
1 04/13/2018 07:58:51 78.39, 70.35 69.44 04/13/2018 07:57:42 78.40, 68.03 69.36 51.96 69
2 04/13/2018 08:49:37 -78.21,-123.33 110.80 04/13/2018 08:48:32 -78.20,-123.51 110.81 4.04 65
3 04/13/2018 09:40:18 78.18, 43.82 69.16 04/13/2018 09:39:37 78.17, 43.95 69.15 3.18 41
4 04/13/2018 10:30:59 -78.19,-148.77 110.84 04/13/2018 10:30:32 -78.16,-148.74 110.88 3.62 27
5 04/13/2018 11:21:40 78.16, 18.39 69.11 04/13/2018 11:21:38 78.16, 18.50 69.12 2.61 2
6 04/13/2018 12:12:21 -78.17,-174.20 110.89 04/13/2018 12:12:33 -78.15,-174.19 110.91 2.55 12
7 04/13/2018 13:03:02 78.14, -7.05 69.07 04/13/2018 13:03:39 78.15, -6.95 69.08 2.46 37
8 04/13/2018 13:53:43 -78.16, 160.36 110.93 04/13/2018 13:54:34 -78.14, 160.36 110.94 1.52 51
9 04/13/2018 14:44:26 78.04, -32.91 68.93 04/13/2018 14:45:38 78.07, -31.96 68.99 21.97 72




NCC Satellite Simultaneous Nadir Overpasses (SNOs) Prediction Service
